When you browse on this site, cookies collect data to enhance your experience and personalize the content and advertising you see.
Visit our Privacy Policy to learn more. By continuing to use the site, you agree to this use of cookies and data.
  • In United Kingdom
  • List of Countries
  • For 7 days
  • Water Temperature
  • Weather Map
  • Weather Widgets
  • user-avatar
    Login

    Hourly Weather Pyiterfolvo

    Today, 19 August, Monday

    Time Temperature Precipitation Wind Pressure Humidity
    00:00 +23°C° 0 mm 2 mps 751 mmHg 68%
    01:00 +21°C° 0 mm 2 mps 752 mmHg 70%
    02:00 +20°C° 0 mm 2 mps 752 mmHg 71%
    03:00 +20°C° 0 mm 2 mps 752 mmHg 72%
    04:00 +20°C° 0 mm 2 mps 752 mmHg 70%
    05:00 +19°C° 0 mm 2 mps 752 mmHg 70%
    06:00 +19°C° 0 mm 2 mps 752 mmHg 71%
    07:00 +20°C° 0 mm 2 mps 753 mmHg 73%
    08:00 +23°C° 0 mm 2 mps 753 mmHg 72%
    09:00 +25°C° 0 mm 3 mps 753 mmHg 64%
    10:00 +27°C° 0 mm 2 mps 753 mmHg 60%
    11:00 +29°C° 0 mm 1 mps 753 mmHg 52%
    12:00 +30°C° 0 mm 1 mps 753 mmHg 47%
    13:00 +29°C° 0 mm 0 mps 753 mmHg 47%
    14:00 +30°C° 0 mm 0 mps 753 mmHg 47%
    15:00 +30°C° 0 mm 0 mps 753 mmHg 46%
    16:00 +30°C° 0 mm 0 mps 752 mmHg 47%
    17:00 +30°C° 0 mm 0 mps 752 mmHg 48%
    18:00 +30°C° 0 mm 0 mps 752 mmHg 49%
    19:00 +29°C° 0 mm 0 mps 752 mmHg 58%
    20:00 +29°C° 0 mm 0 mps 752 mmHg 51%
    21:00 +28°C° 0 mm 0 mps 752 mmHg 51%
    22:00 +29°C° 0 mm 1 mps 752 mmHg 54%
    23:00 +28°C° 0 mm 1 mps 753 mmHg 56%

    Tomorrow, 20 August, Tuesday

    Time Temperature Precipitation Wind Pressure Humidity
    00:00 +27°C° 0 mm 1 mps 753 mmHg 57%
    01:00 +26°C° 0 mm 1 mps 753 mmHg 58%
    02:00 +25°C° 0 mm 2 mps 753 mmHg 65%
    03:00 +24°C° 0 mm 1 mps 753 mmHg 68%
    04:00 +24°C° 0 mm 1 mps 753 mmHg 68%
    05:00 +23°C° 0 mm 1 mps 753 mmHg 69%
    06:00 +23°C° 0 mm 1 mps 753 mmHg 70%
    07:00 +23°C° 0 mm 1 mps 754 mmHg 71%
    08:00 +25°C° 0 mm 1 mps 754 mmHg 73%
    09:00 +28°C° 0 mm 2 mps 754 mmHg 65%
    10:00 +29°C° 0 mm 2 mps 755 mmHg 62%
    11:00 +31°C° 0 mm 1 mps 755 mmHg 59%
    12:00 +30°C° 0 mm 0 mps 755 mmHg 54%
    13:00 +31°C° 0 mm 0 mps 755 mmHg 47%
    14:00 +32°C° 0 mm 0 mps 754 mmHg 43%
    15:00 +34°C° 0 mm 1 mps 754 mmHg 42%
    16:00 +34°C° 0 mm 1 mps 753 mmHg 42%
    17:00 +34°C° 0 mm 1 mps 753 mmHg 44%
    18:00 +34°C° 0 mm 1 mps 753 mmHg 47%
    19:00 +33°C° 0 mm 1 mps 753 mmHg 57%
    20:00 +30°C° 0 mm 2 mps 753 mmHg 66%
    21:00 +29°C° 0 mm 2 mps 754 mmHg 70%
    22:00 +28°C° 0 mm 2 mps 754 mmHg 75%
    23:00 +27°C° 0 mm 2 mps 754 mmHg 81%

    Day after tomorrow, 21 August, Wednesday

    Time Temperature Precipitation Wind Pressure Humidity
    00:00 +26°C° 0 mm 2 mps 754 mmHg 84%
    01:00 +26°C° 0 mm 2 mps 754 mmHg 83%
    02:00 +25°C° 0 mm 2 mps 754 mmHg 84%
    03:00 +25°C° 0 mm 2 mps 753 mmHg 84%
    04:00 +24°C° 0 mm 2 mps 753 mmHg 83%
    05:00 +24°C° 0 mm 2 mps 753 mmHg 84%
    06:00 +23°C° 0 mm 2 mps 753 mmHg 86%
    07:00 +24°C° 0 mm 2 mps 754 mmHg 82%
    08:00 +26°C° 0 mm 3 mps 754 mmHg 76%
    09:00 +28°C° 0 mm 3 mps 754 mmHg 72%
    10:00 +30°C° 0 mm 4 mps 754 mmHg 69%
    11:00 +31°C° 0 mm 2 mps 754 mmHg 65%
    12:00 +32°C° 0 mm 1 mps 754 mmHg 63%
    13:00 +33°C° 0 mm 1 mps 753 mmHg 59%
    14:00 +34°C° 0 mm 1 mps 753 mmHg 56%
    15:00 +32°C° 0 mm 0 mps 753 mmHg 50%
    16:00 +34°C° 0 mm 1 mps 752 mmHg 47%
    17:00 +34°C° 0 mm 3 mps 752 mmHg 55%
    18:00 +33°C° 0 mm 4 mps 752 mmHg 56%
    19:00 +31°C° 0 mm 2 mps 752 mmHg 66%
    20:00 +30°C° 0 mm 2 mps 752 mmHg 76%
    21:00 +29°C° 0 mm 2 mps 752 mmHg 82%
    22:00 +28°C° 0 mm 3 mps 752 mmHg 79%
    23:00 +27°C° 0 mm 3 mps 753 mmHg 92%

    22 August, Thursday

    Time Temperature Precipitation Wind Pressure Humidity
    00:00 +27°C° 0 mm 2 mps 753 mmHg 89%
    01:00 +27°C° 0 mm 2 mps 753 mmHg 85%
    02:00 +26°C° 0 mm 2 mps 753 mmHg 83%
    03:00 +25°C° 0 mm 2 mps 753 mmHg 83%
    04:00 +25°C° 0 mm 2 mps 753 mmHg 84%
    05:00 +24°C° 0 mm 2 mps 753 mmHg 85%
    06:00 +24°C° 0 mm 2 mps 753 mmHg 84%
    07:00 +25°C° 0 mm 1 mps 753 mmHg 83%
    08:00 +26°C° 0 mm 1 mps 753 mmHg 79%
    09:00 +26°C° 0 mm 0 mps 754 mmHg 73%
    10:00 +27°C° 0 mm 0 mps 754 mmHg 68%
    11:00 +28°C° 0 mm 0 mps 754 mmHg 66%
    12:00 +31°C° 0 mm 1 mps 753 mmHg 65%
    13:00 +32°C° 0 mm 1 mps 753 mmHg 63%
    14:00 +27°C° 3.2 mm 3 mps 753 mmHg 75%

    23 August, Friday

    Time Temperature Precipitation Wind Pressure Humidity

    24 August, Saturday

    Time Temperature Precipitation Wind Pressure Humidity
    Show more